This is the latest recevied weather packets stored in our database for station/object KC9DRE. If no packets are shown the sender has not sent any weather packets the latest 10 day(s).
| Time | Temp. | Humidity | Pressure | Rain* | Wind** | Luminosity | Snow |
|---|---|---|---|---|---|---|---|
| 1777600629 | 6.67° C | 91% | 1015.9 hPa | 0 mm | - | 0 W/m² | - |
| 1777600327 | 6.67° C | 91% | 1015.7 hPa | 0 mm | - | 0 W/m² | - |
| 1777600022 | 6.67° C | 90% | 1015.7 hPa | 0 mm | - | 0 W/m² | - |
| 1777599718 | 6.67° C | 90% | 1015.6 hPa | 0 mm | - | 0 W/m² | - |
| 1777599414 | 6.67° C | 90% | 1015.7 hPa | 0 mm | - | 0 W/m² | - |
| 1777599111 | 6.67° C | 89% | 1015.7 hPa | 0 mm | - | 0 W/m² | - |
| 1777598811 | 7.22° C | 88% | 1015.9 hPa | 0 mm | - | 0 W/m² | - |
| 1777598510 | 7.22° C | 86% | 1015.7 hPa | 0 mm | - | 0 W/m² | - |
| 1777598210 | 7.22° C | 85% | 1015.5 hPa | 0 mm | - | 0 W/m² | - |
| 1777597908 | 7.78° C | 84% | 1015.8 hPa | 0 mm | - | 0 W/m² | - |
| 1777597603 | 7.78° C | 83% | 1015.6 hPa | 0 mm | - | 0 W/m² | - |
| 1777597299 | 7.78° C | 80% | 1015.8 hPa | 0 mm | - | 0 W/m² | - |
| 1777596994 | 8.33° C | 79% | 1015.7 hPa | 0 mm | - | 0 W/m² | - |
| 1777596691 | 8.89° C | 77% | 1015.8 hPa | 0 mm | - | 0 W/m² | - |
| 1777596388 | 9.44° C | 75% | 1015.6 hPa | 0 mm | - | 1 W/m² | - |
| 1777596085 | 10° C | 73% | 1015.8 hPa | 0 mm | - | 2 W/m² | - |
| 1777595781 | 10° C | 72% | 1015.7 hPa | 0 mm | - | 3 W/m² | - |
| 1777595476 | 10.56° C | 71% | 1015.5 hPa | 0 mm | - | 4 W/m² | - |
| 1777595173 | 11.11° C | 69% | 1015.6 hPa | 0 mm | - | 7 W/m² | - |
| 1777594869 | 11.67° C | 67% | 1015.5 hPa | 0 mm | - | 10 W/m² | - |
| 1777594566 | 12.22° C | 64% | 1015.4 hPa | 0 mm | - | 13 W/m² | - |
| 1777594262 | 12.78° C | 61% | 1015.2 hPa | 0 mm | - | 16 W/m² | - |
| 1777593958 | 13.89° C | 58% | 1015.3 hPa | 0 mm | - | 20 W/m² | - |
| 1777593654 | 14.44° C | 56% | 1015.3 hPa | 0 mm | - | 24 W/m² | - |
| 1777593350 | 15.56° C | 53% | 1015.3 hPa | 0 mm | - | 26 W/m² | - |
* Rain latest hour (hover to see other rain measurements)
** Current wind speed in m/s (hover to see current wind gust speed)